Regional Weather Roundup
Issued by NWS Newport/Morehead, NC

Current Version | Previous Version | Graphics & Text | Print | Product List | Glossary Off
Versions: 1 2 3 4 5 6 7 8 9 10 11 12 13 14 15 16 17 18 19 20 21 22 23 24 25 26 27 28 29 30 31 32 33 34 35 36 37 38 39 40 41 42 43 44 45 46 47 48 49 50

174
ASUS42 KMHX 242214
RWRMHX
WEATHER ROUNDUP FOR EASTERN NORTH CAROLINA
NATIONAL WEATHER SERVICE NEWPORT/MOREHEAD CITY NC
600 PM EDT MON JUL 24 2017

NOTE: "FAIR" INDICATES FEW OR NO CLOUDS BELOW 12,000 FEET
WITH NO SIGNIFICANT WEATHER AND/OR OBSTRUCTIONS TO VISIBILITY

NCZ015>017-031-032-045>047-102-103-242300-
NORTH COAST

CITY           SKY/WX    TMP DP  RH WIND       PRES   REMARKS
EDENTON        SUNNY     89  76  65 CALM      29.88S HX 101
ELIZABETH CITY MOSUNNY   87  77  72 SW12      29.86F
KITTY HAWK     CLEAR     87  73  63 W6        29.86S
MANTEO         SUNNY     87  74  66 W7        29.88S

$$

NCZ045>047-081-094-103-104-242300-
CENTRAL COAST

CITY           SKY/WX    TMP DP  RH WIND       PRES   REMARKS
FRISCO         CLOUDY    81  75  82 SW10      29.90S

$$

NCZ095-097-098-100-101-242300-
SOUTHERN COAST

CITY           SKY/WX    TMP DP  RH WIND       PRES   REMARKS
BEAUFORT       SUNNY     85  80  85 SW20      29.91S
CEDAR ISLAND   NOT AVBL
JACKSONVILLE   MOSUNNY   88  77  69 W9        29.89S HX 100
PINEY ISLAND   PTCLDY   N/A N/A N/A S16       29.89S
WILMINGTON     MOSUNNY   86  77  74 S12       29.90S


$$

NCZ011>013-027>030-043-044-078>080-089-090>093-098-242300-
COASTAL PLAIN

CITY           SKY/WX    TMP DP  RH WIND       PRES   REMARKS
AHOSKIE        NOT AVBL
CLINTON        SUNNY     89  76  65 S5        29.90S
ELIZABETHTOWN  NOT AVBL
GOLDSBORO      SUNNY     90  75  61 S6        29.87F HX 100
GREENVILLE     SUNNY     90  72  55 SW6       29.90S
HAVELOCK       NOT AVBL
KENANSVILLE    SUNNY     88  73  62 SW6       29.90S
KINSTON        MOSUNNY   90  72  55 SW8       29.89S
NEW BERN       MOSUNNY   89  75  63 W9        29.90R
RICHLANDS      MOSUNNY   88  76  67 W8        29.90S
ROCKY MOUNT    MOSUNNY   89  75  63 S5        29.87F
WASHINGTON     SUNNY     89  74  62 SW7       29.88S
WHITEVILLE     LGT RAIN  79  77  93 CALM      29.91S

$$

AMZ130-135-150-152-154-156-158-170-250-252-270-ANZ085-086-088-633-658-670-242300-
MARINE OBSERVATIONS

STATION/POSITION TIME  TEMP    WIND        PRES    WAVE   SWELL
                       AIR SEA DIR/SP/G            HT/PER HT/PER
                 (UTC) (F)     (DEG/KT/KT) (MB)    (FT/S) (FT/S)
CHESAPEAKE LIGHT NOT AVBL
64 E VA BEACH    2150   80 79  210/  8/ 10 1011.9    4/ 6   3/ 6
DUCK             2148   86 62  250/  9/ 13 1010.9
2 E DUCK         2200      73                N/A     2/ 8
OREGON INLET     2148          200/ 18/ 21 1011.6
13E OREGON INLT  2148      70                N/A     5/ 7   2/18
HATTERAS CG      2148   81 78  210/  9/ 13 1012.5
DIAMOND BUOY     2150   83 84  220/ 19/ 23 1012.5    6/ 7   2/10
CAPE LOOKOUT     2200   83     210/  9/ 12 1012.6
BEAUFORT LAB     2148   83 82  210/ 11/ 16 1012.1
30 SE NEW RVR IN 2108   82 83  240/ 16/ 21 1013.2
30 SE NEW RVR IN 2143      83                N/A     6/ 7
27 SE WRIGHTSVLE 2108   82 83  220/ 16/ 19 1013.1
5 SE WRIGHTSVLE  2108   82 81  200/ 14/ 21 1012.9
225 S CAPE HAT   2150   80 83  240/ 14/ 16 1017.7    6/ 6   3/ 9
41 SE CHARLESTON 2150   82 83  220/ 17/ 21 1014.4    5/ 6   2/ 9

$$




USA.gov is the U.S. government's official web portal to all federal, state and local government web resources and services.